Location: Adast
(42.9743°N, 0.0787°W)
Time: 12:50:06
(UTC+00:00)

Daily predictions for brighter satellites

Satellite Brightness Start Highest point End
(mag) Time Altitude Azimuth Time Altitude Azimuth Time Altitude Azimuth
BREEZE-M DEB 4.1 19:28:23 10° WNW 19:31:37 56° SSW 19:42:09 10° SE
Meteor 1-26 Rocket 4.3 19:33:07 10° N 19:38:43 88° W 19:44:09 10° S
Cosmos 1346 Rocket 4.1 19:38:55 10° SSW 19:42:44 45° WNW 19:46:36 10° N
Cosmos 1900 4.4 19:38:25 10° SSW 19:43:14 59° ESE 19:48:11 10° NE
MONITOR-E 4.0 19:44:51 10° SSE 19:47:07 40° ENE 19:49:22 10° N
Cosmos 1408 Rocket 4.4 19:45:40 10° SSW 19:50:03 58° W 19:54:29 10° N
USA 267 3.4 19:43:58 10° ENE 19:50:21 53° SE 19:56:42 10° SSW
COSMOS 2406 3.5 19:46:57 10° S 19:52:25 47° ESE 19:57:54 10° NE
IRS-1A Rocket 4.5 19:47:27 10° SSE 19:53:04 79° WSW 19:58:51 10° NNW
Shenzhou-11 Module 1.2 19:50:42 10° W 19:53:05 89° S 19:55:26 10° E
Cosmos 1743 Rocket 3.6 19:49:29 10° S 19:53:54 80° E 19:58:23 10° N
Cosmos 2366 rocket 4.1 19:48:23 10° S 19:54:39 88° W 20:00:54 10° N
CZ-2C R/B 4.0 19:53:20 10° NNE 19:57:49 47° E 20:02:09 10° S
Intercosmos 25 4.4 19:55:01 10° N 19:58:47 28° ENE 20:01:26 12° SE
Lacrosse 5 4.2 19:55:53 10° NW 19:59:09 17° N 20:02:27 10° NE
MOS 1 Rocket 4.4 19:54:16 10° N 19:59:35 57° WNW 20:04:49 10° SSW
Cosmos 1862 3.6 19:58:18 10° SSE 20:02:11 49° E 20:06:07 10° NNE
Sich 1 3.8 19:59:12 10° SSE 20:03:09 33° E 20:07:08 10° NNE
SJ-6B 3.3 20:00:43 10° S 20:04:46 64° W 20:08:46 10° NNW
BREEZE-M DEB (TANK) 4.2 20:02:51 10° W 20:06:48 30° NNW 20:08:46 10° NE
IRIDIUM 106 4.5 20:02:01 10° SSE 20:07:04 55° E 20:12:10 10° NNE
Cosmos 2082 Rocket 3.2 20:03:10 10° SSE 20:07:44 25° ESE 20:12:19 10° NE
Cosmos 1818 4.2 20:02:45 10° NNW 20:07:58 43° NE 20:12:24 14° ESE
Meteor 2-6 Rocket 4.2 20:02:42 10° N 20:08:12 72° E 20:13:50 10° SSE
Cosmos 1500 Rocket 4.0 20:09:02 10° SSW 20:13:18 66° W 20:17:37 10° N
Ariane Rocket 4.1 20:12:12 10° S 20:17:00 44° W 20:21:52 10° NNW
Resurs 1-3 3.6 20:14:06 10° SSE 20:18:29 88° ENE 20:22:54 10° NNW
USA 186 4.0 20:17:06 10° SW 20:18:30 14° W 20:19:54 10° WNW
Meteor 1-4 Rocket 4.1 20:18:42 10° NNE 20:21:19 19° ENE 20:22:27 17° E
Terra 4.0 20:21:45 10° ENE 20:23:20 12° ENE 20:24:55 10° NE
Cosmos 407 Rocket 3.7 20:18:18 10° S 20:23:26 51° ESE 20:28:33 10° NNE
Cosmos 1666 Rocket 4.1 20:21:27 14° SSE 20:24:44 36° E 20:28:43 10° NNE
USA 234 4.0 20:18:46 10° E 20:24:53 45° NNE 20:31:02 10° NW
SL-8 R/B 3.7 20:20:34 10° WNW 20:25:25 81° SSW 20:28:49 20° ESE
CZ-2C R/B 3.2 20:20:29 10° N 20:25:34 59° WNW 20:30:40 10° SSW
MetOp-B 4.4 20:25:45 16° SE 20:29:49 52° ENE 20:35:01 10° N
Meteor 1-27 Rocket 4.0 20:26:27 10° N 20:32:18 59° ENE 20:36:53 17° SSE
Meteor 1-10 Rocket 4.3 20:27:10 10° N 20:32:51 86° W 20:38:37 10° S
USA 238 DEB 4.3 20:30:28 10° S 20:36:05 31° ESE 20:41:52 10° NE
USA 238 4.3 20:30:37 10° S 20:36:12 30° ESE 20:41:57 10° NE
Cosmos 1805 Rocket 3.7 20:32:00 10° SSW 20:36:24 78° W 20:40:52 10° N
SPOT 5 4.3 20:35:54 16° E 20:37:24 18° ENE 20:40:23 10° NNE
BREEZE-M DEB (TANK) 2.9 20:32:50 10° WNW 20:37:39 38° SW 20:39:00 23° S
SPOT 1/Viking Rocket 4.1 20:39:53 22° SE 20:42:45 41° ENE 20:47:39 10° N
Cosmos 1980 Rocket 2.9 20:38:46 10° NNW 20:44:04 39° ENE 20:47:05 22° ESE
OE (NEXTSAT) 4.2 20:40:38 10° WNW 20:44:09 83° SSW 20:45:31 34° ESE
SL-4 R/B 1.7 20:42:11 10° SW 20:46:11 79° SE 20:49:54 10° ENE
BREEZE-M DEB (TANK) 3.5 20:45:20 10° WNW 20:47:51 39° N 20:53:20 10° ENE
Cosmos 1140 Rocket 3.4 20:43:53 10° S 20:49:04 66° ESE 20:54:16 10° NNE
Cosmos 972 4.4 20:44:19 10° NNW 20:49:31 85° WSW 20:52:44 22° SSE
ATLAS 5 CENTAUR R/B 2.8 20:46:46 10° NW 20:52:33 60° WSW 20:57:17 20° SSE
Cosmos 1023 Rocket 4.4 20:48:19 10° SSW 20:53:34 75° ESE 20:58:51 10° NNE
USA 32 4.4 20:53:02 27° SE 20:55:29 45° E 21:00:27 10° NNE
Cosmos 389 Rocket 3.7 20:52:32 10° NNW 20:55:46 39° W 20:58:14 15° SSW
Cosmos 1633 Rocket 3.0 20:55:05 21° S 20:57:56 71° E 21:02:22 10° NNE
Cosmos 1833 Rocket 2.9 20:52:33 10° SSW 20:58:09 75° WNW 21:03:48 10° NNE
Cosmos 1812 3.6 20:55:11 10° NNW 20:58:53 46° W 21:01:40 16° SSW
Cosmos 1697 Rocket 2.6 20:54:18 10° NNW 20:59:56 89° WSW 21:03:04 28° SSE
Cosmos 1867 3.5 20:59:12 10° SSW 21:04:31 61° ESE 21:09:54 10° NE
CENTAUR R/B 3.3 21:04:45 26° ESE 21:04:46 26° ESE 21:10:05 10° NE
Resurs 01 Rocket 2.7 21:05:06 14° SSW 21:08:33 41° W 21:12:45 10° NNW
Cosmos 1707 Rocket 3.9 21:06:12 10° NNW 21:10:29 60° W 21:12:53 25° SSW
Landsat 7 3.7 21:08:59 32° SSE 21:11:14 89° W 21:16:01 10° NNW
FALCON 9 DEB 3.1 21:08:23 10° SW 21:11:53 84° NW 21:15:22 10° NE
deb Kosmos-1763 3.9 21:14:16 40° SSW 21:15:29 89° WNW 21:19:09 10° NNE
Cosmos 676 Rocket 3.9 21:14:02 19° S 21:17:57 75° ESE 21:23:17 10° NNE
IGS 5A 3.6 21:17:35 38° S 21:19:04 69° WSW 21:23:12 10° NNW
Meteor 1-25 Rocket 4.2 21:17:53 33° SSE 21:20:20 64° E 21:25:52 10° NNE
Cosmos 1470 Rocket 3.5 21:19:31 47° SSE 21:20:40 69° E 21:25:03 10° NNE
ATLAS 5 CENTAUR R/B 4.4 21:20:08 10° NNE 21:21:37 12° NE 21:23:24 10° ENE
Cosmos 192 4.4 21:16:48 10° NNW 21:21:41 63° ENE 21:22:57 46° SE
Cosmos 1934 Rocket 4.2 21:16:23 11° SSW 21:22:33 76° W 21:28:57 10° N
Aureole 1 Rocket 4.3 21:17:03 10° SSW 21:23:36 89° WNW 21:31:47 10° NNE
Shenzhou-11 Module 4.3 21:24:47 10° W 21:25:14 14° W 21:25:14 14° W
Cosmos 2360 4.3 21:21:29 10° NNW 21:27:13 72° WSW 21:29:33 37° S
GP-B 3.3 21:24:30 10° N 21:28:56 69° W 21:30:41 35° SSW
NOSS 3-2 (A) 3.2 21:24:57 10° SSW 21:30:30 71° ESE 21:36:50 10° NE
USA 267 4.0 21:27:01 10° NE 21:33:20 53° NNW 21:39:39 10° WSW
Cosmos 921 Rocket 3.0 21:30:30 10° N 21:34:40 59° ENE 21:34:50 59° E
NOSS 3-2 (C) 3.5 21:35:51 46° SE 21:36:30 48° ESE 21:42:29 10° NE
Cosmos 1862 Rocket 3.8 21:32:38 10° NNW 21:37:04 66° W 21:38:11 47° SSW
ERS-1 Rocket 2.9 21:36:08 51° SSE 21:37:26 86° ENE 21:42:30 10° NNW
SAR-Lupe-2 3.7 21:38:43 10° NNE 21:41:56 70° N 21:41:56 70° N
SL-16 R/B 3.1 21:37:44 10° N 21:42:55 35° NE 21:44:17 31° E
Lacrosse 5 3.2 21:38:55 10° NW 21:43:30 33° NNE 21:45:31 24° ENE
Cosmos 468 Rocket 4.3 21:39:46 10° N 21:44:58 51° ENE 21:45:45 47° E
Cosmos 1741 Rocket 4.2 21:48:23 50° E 21:48:23 50° E 21:53:17 10° NNE
Cosmos 2082 Rocket 3.1 21:46:00 10° SW 21:51:30 49° WNW 21:57:01 10° NNE
Meteor 1-4 Rocket 4.4 21:53:32 10° NW 21:56:17 22° W 21:56:38 22° W
Cosmos 2278 4.2 21:51:35 10° NNW 21:57:07 52° WSW 21:58:39 41° SSW
CARTOSAT-1 3.9 21:57:12 53° WSW 21:57:35 55° W 22:01:50 10° NNW
Terra 1.6 22:00:02 79° S 22:00:20 89° WSW 22:05:08 10° NNW
Cosmos 1933 Rocket 3.9 22:01:23 55° WSW 22:01:55 61° W 22:06:18 10° N
Cosmos 2322 Rocket 2.8 21:59:58 10° NNW 22:05:22 42° ENE 22:06:13 40° E
Cosmos 1238 Rocket 4.3 22:06:54 25° NW 22:06:54 25° NW 22:08:46 10° NNW
Cosmos 2100 Rocket 3.9 22:05:36 58° SE 22:06:21 63° E 22:12:24 10° NNE
Cosmos 1602 4.4 22:06:47 52° WNW 22:06:47 52° WNW 22:10:25 10° N
Okean 1 3.8 22:03:31 10° NNW 22:07:06 59° WNW 22:07:06 59° WNW
USA 234 3.3 22:06:06 51° SSE 22:07:42 68° SW 22:14:13 10° NW
Cosmos 1437 Rocket 3.6 22:08:02 10° N 22:10:50 47° N 22:10:50 47° N
Cosmos 1869 Rocket 4.1 22:13:01 50° NE 22:13:01 50° NE 22:16:28 10° NNE
SPOT 5 3.4 22:15:08 42° W 22:15:11 42° W 22:19:20 10° NNW
Cosmos 2360 Rocket 3.3 22:14:27 10° N 22:19:27 31° NE 22:20:19 29° ENE
ATLAS 3B R/B 3.5 22:21:13 32° E 22:21:13 32° E 22:25:29 10° NE
Iridium 4 Rocket 3.7 22:21:45 50° NNE 22:21:45 50° NNE 22:24:59 10° N
Geosat 4.4 22:20:48 50° ENE 22:20:58 50° ENE 22:25:50 10° NNW
Cosmos 2173 Rocket 3.8 22:21:11 68° SSE 22:21:54 77° E 22:28:02 10° N
Meteor 1-19 Rocket 4.3 22:18:39 10° NNW 22:23:59 61° W 22:24:35 57° SW
Cosmos 405 Rocket 4.4 22:24:29 29° WNW 22:24:29 29° WNW 22:27:36 10° NNW
Cosmos 1703 Rocket 4.1 22:20:28 10° NNW 22:24:15 53° WNW 22:24:15 53° WNW
SL-4 R/B 3.8 22:22:44 10° WNW 22:26:03 28° NNW 22:27:13 23° NNE
USA 238 DEB 4.2 22:20:07 10° SW 22:26:37 57° NW 22:33:26 10° NNE
USA 238 4.2 22:20:13 10° SW 22:26:43 58° NW 22:33:32 10° NNE
Cosmos 1725 Rocket 4.4 22:27:19 47° E 22:27:19 47° E 22:33:17 10° NNE
Cosmos 1980 Rocket 3.3 22:22:58 10° NW 22:27:57 32° WSW 22:28:51 31° WSW
Cosmos 1763 Rocket 3.5 22:25:54 10° NNW 22:31:09 74° W 22:31:09 74° W
Cosmos 2333 Rocket 4.0 22:35:26 10° N 22:39:41 21° NE 22:41:19 18° ENE
Cosmos 2016 Rocket 3.9 22:39:51 72° ESE 22:40:06 73° E 22:46:28 10° NNE
Meteor 1-5 Rocket 4.2 22:40:38 81° SSW 22:40:57 88° W 22:46:57 10° N
Cosmos 2061 Rocket 3.8 22:41:22 73° ESE 22:41:31 74° E 22:47:42 10° NNE
Cosmos 1459 Rocket 4.0 22:42:36 63° SW 22:43:32 75° W 22:49:54 10° N
Meteor 1-13 Rocket 4.2 22:38:08 10° N 22:43:23 72° NE 22:43:23 72° NE
Okean 1-7 4.4 22:42:02 10° NNW 22:45:21 34° WNW 22:45:21 34° WNW
MOS 1-B Rocket 3.7 22:41:06 10° NNE 22:46:44 87° ENE 22:46:44 87° ENE
Cosmos 1864 Rocket 4.4 22:53:23 77° E 22:53:23 77° E 22:59:34 10° N
CENTAUR R/B 3.0 22:51:50 31° WSW 22:54:47 59° NW 23:01:45 10° NNE
Thor Agena Rocket 3.9 22:52:55 10° NNE 22:57:00 57° NNE 22:57:00 57° NNE
Cosmos 1802 Rocket 4.1 22:58:41 64° WSW 22:59:25 70° W 23:05:48 10° N
Cosmos 967 Rocket 4.4 22:54:25 10° NNW 23:00:48 72° NE 23:01:03 71° ENE
Meteor 2-4 Rocket 4.2 22:55:33 10° NNW 23:00:58 48° W 23:00:58 48° W
Cosmos 44 3.9 22:57:34 10° NNW 23:01:33 57° NNW 23:01:33 57° NNW
Spot 4 4.5 23:06:33 54° NNW 23:06:33 54° NNW 23:10:18 10° NNW
Cosmos 2346 Rocket 4.4 23:05:16 10° NNW 23:11:12 70° W 23:11:12 70° W
Cosmos 2233 Rocket 4.0 23:14:31 69° ENE 23:14:31 69° ENE 23:20:30 10° NNE
Cosmos 841 Rocket 4.4 23:18:09 10° NNW 23:22:05 42° WNW 23:22:05 42° WNW
Cosmos 540 Rocket 4.4 23:19:22 10° NNW 23:23:10 41° WNW 23:23:10 41° WNW
Lacrosse 5 3.2 23:21:44 10° NW 23:24:40 34° WNW 23:24:40 34° WNW
SL-16 R/B 3.3 23:21:51 10° NW 23:26:08 35° W 23:26:08 35° W
Cosmos 1833 4.5 23:28:45 63° NNE 23:28:45 63° NNE 23:33:28 10° NNE
Cosmos 2322 4.2 23:24:22 10° NNW 23:29:31 54° NE 23:29:31 54° NE
Cosmos 2219 Rocket 2.9 23:33:00 10° NNW 23:38:19 45° NE 23:38:19 45° NE
Tsikada Rocket 4.2 23:33:41 10° NNW 23:39:45 60° W 23:39:45 60° W
Cosmos 2322 Rocket 3.6 23:44:21 10° NW 23:48:01 27° W 23:48:01 27° W
